Temp
18 19 19 18 18 18 18 18 17 17 17 17 17 17 17 17 17 17 17 17 17 17 17 16 16 16 16 16 16 15 15 15 15 15 15 15 15 16 16 16 16 16
18 19 19 18 18 18 18 18 17 17 17 17 17 17 17 17 17 17 17 17 17 17 17 17 17 17 17 16 16 16 16 16 16 16 16 16 16 16 16 16 16 16
18 18 18 18 18 18 18 18 17 17 17 17 17 17 17 17 17 17 17 17 17 16 17 17 17 17 17 16 16 16 16 16 16 16 16 16 16 16 16 16 16 16
18 18 18 18 18 18 18 17 17 17 17 17 17 17 17 16 16 17 16 16 16 16 16 16 16 16 16 16 16 16 16 16 16 16 16 16 16 16 16 16 16 16
18 18 18 18 18 18 17 17 17 17 17 17 17 17 17 16 16 16 16 16 16 16 16 16 16 16 16 16 16 16 16 16 16 16 16 16 16 16 16 16 16 16
18 18 18 18 18 18 17 17 17 17 17 17 17 17 17 16 16 16 16 16 16 16 16 16 16 16 16 16 16 16 16 16 16 16 17 17 17 17 17 16 16 16
17 18 18 18 18 18 17 17 17 17 17 17 17 16 16 16 16 16 16 16 16 16 16 16 16 15 15 15 16 16 16 16 17 17 17 17 17 17 17 17 16 16
18 18 18 18 18 18 17 17 17 17 17 17 16 16 16 16 16 16 16 16 16 16 16 16 16 16 16 16 16 17 17 17 17 18 18 18 18 18 18 17 17 17
18 18 18 18 18 18 17 17 17 17 17 16 16 16 16 16 16 16 16 16 16 16 16 16 16 16 16 16 16 17 17 17 17 17 18 18 18 18 18 18 18 18
18 18 18 18 18 18 17 17 17 17 17 16 16 16 16 15 15 15 16 16 16 16 16 16 16 16 16 16 16 16 17 17 17 17 17 18 18 18 18 18 18 19
17 17 17 17 17 18 17 17 17 16 16 16 16 16 16 15 15 15 15 16 16 16 16 16 16 16 16 16 16 16 16 17 17 17 17 17 17 18 18 18 18 18
17 17 17 17 17 17 17 17 17 16 16 16 16 16 16 16 15 15 15 16 16 16 16 16 16 16 16 16 16 16 16 16 16 17 17 17 17 17 17 18 18 18
16 16 16 16 17 17 17 16 16 16 16 16 16 16 16 16 16 16 16 16 16 16 16 16 16 16 16 16 16 16 16 16 16 16 16 17 17 17 17 17 17 17
15 15 16 16 16 16 16 15 16 16 16 16 16 16 16 16 16 16 16 16 16 16 16 16 16 16 16 16 16 16 16 16 16 16 16 16 16 16 17 17 17 17
14 15 15 15 15 15 15 15 15 15 15 16 16 16 16 16 16 16 16 16 16 16 16 16 16 16 16 16 16 16 16 16 16 16 16 16 16 16 16 16 17 17
13 13 14 14 14 14 14 14 14 15 15 15 15 16 16 16 16 16 16 16 16 16 15 15 15 16 16 16 16 16 16 16 16 16 16 16 16 16 16 16 16 17
12 13 13 13 13 13 13 13 14 14 15 15 15 15 15 16 16 16 16 16 16 15 15 15 15 15 15 15 15 15 15 16 16 16 16 16 16 16 17 17 17 17
11 12 12 12 12 12 13 13 13 13 14 14 14 14 15 15 15 15 15 15 15 15 14 14 14 14 14 15 15 15 15 15 15 16 16 16 16 16 16 16 16 16
11 11 11 11 11 12 12 12 13 13 13 13 13 13 13 14 14 14 14 14 14 14 14 14 14 14 14 14 15 15 15 16 15 16 16 16 16 16 16 16 16 16
10 10 10 10 10 11 11 12 12 12 12 12 12 12 12 13 12 13 13 13 13 13 13 13 13 13 13 14 14 15 15 15 15 15 15 15 15 15 15 15 15 15
9 10 9 9 10 10 11 11 11 11 11 11 11 11 11 11 11 11 11 11 12 12 12 12 12 12 13 13 14 14 14 15 15 15 15 15 15 15 15 15 15 15
9 9 9 9 9 10 10 10 10 10 10 10 11 11 11 10 10 10 10 10 11 11 12 11 11 12 12 13 13 13 14 14 14 14 14 14 14 14 14 14 14 14
8 9 9 9 9 10 10 10 10 9 9 10 10 10 10 10 9 9 9 9 10 10 11 11 11 11 11 12 12 13 13 13 13 13 13 13 13 13 13 13 13 13
8 8 8 8 8 9 8 8 9 9 9 9 9 10 10 9 9 9 9 9 9 9 9 10 10 10 10 11 11 12 12 12 12 12 12 12 13 13 13 13 13 13
7 7 8 7 7 7 7 7 8 8 8 8 8 8 9 9 9 9 8 8 8 8 8 9 9 9 10 10 11 11 11 11 11 11 11 12 12 12 13 13 13 13
6 6 7 6 6 6 6 6 6 7 7 7 7 7 7 8 8 8 7 7 7 7 7 8 8 8 9 9 9 10 10 10 10 10 10 10 10 11 11 11 11 12
Height
814 815 817 819 820 822 824 825 827 829 830 831 833 834 835 836 837 837 838 838 839 839 840 841 841 842 843 845 846 848 849 851 852 853 854 855 855 855 856 856 857 858
813 815 816 818 820 821 823 825 827 828 830 831 832 833 834 835 836 837 838 838 839 839 840 841 842 842 843 844 845 846 848 849 851 852 853 853 854 854 855 855 856 858
813 815 816 818 819 821 823 825 826 828 830 831 832 833 834 835 836 837 838 838 839 840 840 841 842 842 843 843 844 845 846 848 849 850 851 852 853 854 854 855 856 857
814 815 816 818 820 821 823 824 826 828 829 831 832 833 834 835 836 837 838 838 839 840 840 841 841 842 842 843 844 845 846 847 848 849 850 851 852 853 853 854 855 857
814 815 817 819 820 822 823 825 826 828 829 831 832 833 834 835 836 837 838 839 839 840 840 841 841 842 842 843 843 844 845 846 847 848 850 850 851 852 853 854 855 856
815 817 818 820 821 823 824 826 827 828 830 831 832 833 834 835 836 837 838 839 839 840 840 841 842 842 843 843 844 845 845 846 847 848 849 850 851 852 852 853 855 856
816 818 819 821 823 824 825 826 828 829 830 832 832 833 834 835 836 837 838 839 839 840 841 841 842 842 843 844 844 845 846 846 847 848 848 849 850 851 852 853 855 856
815 818 820 822 823 824 826 827 828 829 831 832 833 834 835 835 836 837 838 839 839 840 841 842 842 843 843 844 845 845 846 846 847 848 848 849 850 851 852 853 854 855
814 816 819 821 822 824 825 826 828 830 831 833 834 834 835 836 837 837 838 839 840 841 842 842 843 843 844 845 845 846 846 847 847 848 849 850 851 852 852 853 854 855
813 816 818 820 822 823 825 826 828 830 831 833 834 834 835 836 837 837 838 839 840 841 842 843 843 844 844 845 845 846 847 847 848 849 850 850 851 852 853 853 854 855
813 816 818 820 822 823 825 826 828 830 832 833 834 834 835 836 837 837 838 839 840 841 842 843 843 844 844 845 846 846 847 847 848 849 850 851 852 852 853 853 854 855
813 815 818 820 822 823 825 826 828 830 831 833 834 834 835 836 837 837 838 839 840 841 842 843 843 844 845 845 846 846 847 848 848 849 850 851 852 852 853 854 854 855
814 816 817 820 822 824 825 827 828 830 831 833 834 835 835 836 837 838 838 839 840 840 841 842 843 844 845 845 846 847 847 848 848 849 850 851 852 853 853 854 855 856
817 817 818 821 823 825 826 828 829 830 831 833 834 835 836 837 837 838 838 839 840 840 841 842 843 844 845 846 846 847 848 848 849 849 850 851 852 853 854 855 856 856
818 818 819 822 824 825 828 829 830 831 831 833 834 835 836 837 837 838 838 839 840 840 841 842 843 844 844 845 846 847 847 848 848 849 850 851 852 853 854 855 856 857
819 819 820 822 824 826 828 830 830 831 832 833 834 835 836 837 837 838 838 839 839 840 841 842 842 843 844 844 845 846 847 848 848 849 850 851 852 853 854 855 855 856
819 820 821 822 823 826 828 829 830 831 832 833 834 835 836 836 837 837 837 838 839 839 840 841 842 843 843 844 844 845 846 847 848 849 849 850 851 852 853 854 855 856
819 820 821 822 823 825 827 829 830 831 832 833 834 835 836 837 837 837 837 838 838 839 840 840 841 842 843 844 844 845 846 846 847 848 848 849 850 851 852 853 854 855
821 821 821 822 824 826 827 829 830 832 833 834 834 836 837 837 838 838 838 838 838 838 839 840 841 842 842 843 843 844 845 846 846 847 848 849 849 850 851 852 853 853
822 822 822 823 826 827 828 830 831 833 834 834 836 837 838 838 839 839 839 839 839 839 839 840 840 841 842 842 843 843 844 845 845 846 847 847 848 849 849 850 851 851
823 823 824 826 827 829 830 831 833 834 835 836 837 838 839 840 840 840 841 841 841 840 840 840 840 841 841 842 842 842 843 844 844 845 845 846 847 847 848 848 849 849
825 825 827 829 830 831 833 834 835 835 836 837 838 838 839 841 841 842 842 842 842 842 841 841 841 841 841 841 841 842 842 843 843 843 844 845 845 846 847 847 847 848
828 829 831 832 832 832 833 835 836 837 838 838 838 839 840 841 842 843 843 844 844 843 842 842 841 841 841 841 841 841 841 841 842 842 843 843 844 845 845 846 846 846
831 833 834 834 834 833 834 836 837 838 839 839 839 840 840 841 843 843 843 844 844 844 843 842 842 842 841 841 841 840 840 840 840 841 841 842 842 843 844 844 844 844
833 834 835 837 837 836 836 837 838 839 839 840 840 841 841 841 842 843 844 844 844 844 843 842 842 841 841 840 840 839 839 839 839 840 840 840 841 841 841 842 842 842
834 835 836 839 840 838 838 838 839 839 839 840 841 841 840 840 841 842 843 844 844 844 844 843 842 841 840 840 839 839 839 839 839 839 839 839 840 840 840 840 840 840
Wind_Speed
18 18 19 18 19 19 18 18 16 15 13 12 11 10 9 7 6 6 5 3 4 7 9 8 8 9 8 8 8 8 8 9 10 10 11 12 12 11 11 12 13 12
19 20 20 20 20 20 18 17 15 14 12 11 10 9 8 7 6 6 5 4 5 8 9 8 7 7 7 7 7 7 8 8 9 10 9 9 9 9 9 10 12 12
20 21 20 20 20 20 19 17 14 13 12 11 10 9 7 8 7 7 5 5 5 7 8 7 7 6 6 6 7 8 8 8 7 8 8 8 8 8 8 8 10 11
21 22 20 19 19 19 18 17 15 13 13 12 10 8 8 8 8 7 5 4 3 4 6 6 6 6 5 6 7 8 8 8 7 7 7 8 8 8 8 8 9 10
22 22 20 19 18 18 17 16 15 14 13 12 11 9 9 9 8 7 5 3 3 3 4 6 7 6 5 6 7 8 8 7 7 7 8 8 9 9 9 9 10 11
22 21 19 17 16 16 17 16 15 14 13 11 11 10 9 9 8 6 4 3 4 4 5 7 6 6 5 6 7 7 7 7 7 7 8 8 9 8 9 10 11 12
20 19 17 15 14 15 17 16 15 13 12 11 10 10 10 9 7 5 4 4 5 5 6 7 7 6 7 7 7 7 7 7 7 7 8 8 8 9 9 10 11 11
19 18 16 14 14 15 16 16 14 13 12 11 10 10 9 8 7 6 5 5 6 6 7 8 7 8 8 8 7 7 7 7 6 6 7 8 9 9 9 9 9 9
19 18 16 15 15 15 15 14 13 12 12 11 10 9 9 8 7 7 6 5 6 7 6 6 7 7 7 7 7 7 7 7 7 7 8 9 8 8 7 6 6 6
20 18 17 16 15 14 14 13 12 12 12 10 9 9 9 9 8 7 6 6 6 6 6 5 5 5 6 6 6 5 6 7 7 7 8 8 8 7 6 5 5 4
18 17 16 16 15 14 13 13 13 13 12 10 9 9 9 8 7 7 7 7 7 6 6 5 5 4 4 5 5 5 5 6 7 7 7 7 6 5 5 4 4 3
17 17 16 16 15 14 13 13 14 13 11 10 9 9 9 7 7 7 8 8 8 7 7 5 4 4 4 4 5 5 5 5 6 8 8 7 6 4 4 4 3 4
15 16 15 14 14 14 14 15 14 13 11 10 9 9 8 7 6 7 7 8 8 7 7 5 4 4 4 4 4 4 4 4 5 6 7 6 5 4 4 5 5 5
13 14 13 13 13 13 13 13 13 12 10 9 9 8 7 6 5 5 6 7 7 6 6 5 4 4 4 4 4 4 4 4 5 6 6 5 5 5 5 6 6 6
13 14 14 13 13 13 11 8 8 10 9 9 9 8 7 5 4 4 4 5 6 5 5 5 4 3 4 5 6 5 4 4 6 6 6 5 5 5 5 5 6 6
14 15 16 14 12 10 8 6 6 8 9 8 8 8 6 5 4 3 4 5 5 5 4 5 5 4 4 6 6 5 4 4 5 7 7 6 6 6 6 6 6 6
16 17 17 16 13 11 9 8 8 8 9 8 7 7 6 6 4 4 5 6 5 4 4 3 3 3 2 4 5 5 4 4 4 5 6 7 7 7 6 7 7 7
19 19 19 18 17 15 13 11 10 10 10 9 8 8 7 6 5 5 7 8 7 7 6 5 4 2 1 1 2 3 3 3 3 3 4 5 6 6 6 7 8 8
22 23 23 22 20 19 18 16 14 14 14 14 13 12 11 10 9 9 11 11 11 10 9 8 7 5 3 1 1 2 3 3 3 3 4 4 5 5 6 7 8 9
27 27 27 26 25 24 23 21 20 19 19 19 18 16 15 15 14 13 13 13 12 11 11 10 8 6 4 2 0 1 2 3 4 5 5 6 7 7 8 9 10 10
29 29 29 28 27 26 26 25 24 23 22 21 20 19 19 18 17 16 16 15 14 12 12 11 10 8 5 3 1 0 1 2 3 4 4 5 6 7 8 9 10 11
27 27 27 25 25 25 24 23 23 23 21 20 20 19 18 18 18 17 16 15 13 12 12 12 10 8 6 4 2 1 0 1 2 3 3 4 5 7 8 8 9 10
24 23 22 20 19 19 19 18 18 18 17 16 17 17 17 16 16 16 15 14 13 12 11 10 9 7 6 5 4 3 2 2 3 3 4 5 6 7 8 8 9 10
21 21 20 19 18 16 15 13 11 10 11 12 13 14 14 14 13 13 13 13 13 12 10 9 9 8 7 7 7 6 6 6 7 7 7 7 8 9 9 9 10 11
19 18 17 17 18 17 16 14 10 8 6 5 6 6 7 7 8 9 10 10 10 10 9 8 8 9 9 9 9 10 9 9 9 10 10 11 11 12 12 12 13 12
19 18 16 14 15 15 15 14 13 10 7 5 5 4 3 3 3 5 7 7 8 9 9 8 8 8 9 10 11 11 11 11 10 10 11 12 12 13 14 14 14 14
Wind_Direction
185 182 179 177 174 172 171 169 170 171 172 171 170 169 168 165 159 155 159 161 166 172 170 164 164 168 174 181 189 190 185 186 192 197 205 211 210 210 217 222 222 219
187 185 181 178 176 175 174 173 173 174 174 175 175 177 177 170 157 146 137 128 137 155 161 160 160 164 173 183 189 189 185 187 194 194 195 199 198 202 212 218 218 214
191 189 187 183 180 177 177 178 178 174 172 171 173 176 175 167 157 144 130 119 126 146 158 164 168 169 176 184 187 187 187 191 192 189 188 190 191 197 205 208 208 203
196 195 193 190 186 181 180 182 182 177 172 170 168 165 164 162 157 146 135 128 132 150 164 172 174 172 172 172 172 174 178 183 185 183 183 185 186 192 201 203 196 191
200 199 198 196 192 187 185 186 185 180 176 173 166 159 158 161 161 154 142 141 154 156 162 165 162 160 160 157 157 163 170 178 181 177 179 185 188 192 198 195 188 185
202 202 202 201 197 192 189 189 188 184 182 177 168 161 160 163 164 159 142 149 166 155 145 152 152 151 153 151 155 161 169 177 177 174 178 186 190 190 189 185 184 184
202 203 204 203 197 192 189 189 189 189 187 181 173 167 166 167 164 157 146 157 165 148 133 139 142 143 145 146 150 156 162 167 168 169 176 182 184 182 180 181 184 187
197 199 198 196 190 187 187 189 190 192 189 182 177 173 169 166 159 151 145 149 155 144 127 127 129 131 134 136 138 137 138 144 146 151 160 164 167 168 171 177 181 186
189 190 189 187 186 186 188 190 190 190 187 180 177 173 167 162 152 146 142 136 142 145 134 128 130 132 133 135 132 124 121 127 134 141 146 147 150 154 158 163 162 164
184 184 184 184 184 184 187 189 187 184 181 177 175 168 161 158 151 147 147 140 138 142 140 133 131 136 142 146 143 133 128 131 138 147 149 144 142 143 145 148 148 141
179 178 179 181 183 184 184 182 179 175 173 170 167 159 154 157 157 154 154 154 150 148 145 140 132 133 141 149 152 145 139 143 152 160 160 152 145 142 144 148 154 157
171 171 174 178 180 180 176 172 169 168 165 162 159 153 149 152 157 156 154 156 158 156 153 147 142 143 143 149 157 151 144 150 161 166 165 157 150 150 159 171 177 179
159 161 164 169 172 172 168 166 166 163 157 154 153 150 147 147 149 152 155 157 159 159 155 150 146 150 149 149 159 163 165 172 175 170 166 162 157 156 168 180 182 181
144 145 145 145 148 152 155 160 163 159 153 154 154 151 151 152 152 152 157 163 166 166 165 163 154 148 150 156 161 168 182 196 196 183 173 168 167 166 168 172 175 177
135 133 134 132 132 139 146 152 155 156 157 161 163 161 160 162 162 162 167 172 173 171 171 175 174 163 161 166 167 166 169 182 193 195 192 182 174 178 181 178 178 181
134 132 136 142 147 153 160 158 148 153 161 167 170 172 176 177 179 189 196 191 184 180 175 178 185 183 172 173 176 176 170 167 176 190 199 200 198 201 205 204 204 205
130 129 130 134 141 146 150 146 140 143 150 158 166 170 177 185 192 201 193 179 170 166 161 164 176 182 183 190 194 194 190 180 175 184 196 205 214 218 220 220 221 225
122 123 120 117 120 123 125 127 128 128 130 132 135 138 145 153 155 154 148 138 132 129 124 117 111 98 85 245 234 227 224 214 203 202 201 208 218 224 229 234 237 244
113 114 112 108 107 109 112 115 116 113 110 109 109 112 117 118 118 121 123 122 122 120 114 107 99 87 79 58 270 261 262 259 258 261 256 254 255 252 254 257 260 265
107 106 104 102 101 100 101 103 103 99 97 98 98 99 99 98 99 103 107 111 114 114 112 107 96 86 86 92 98 259 267 271 273 275 279 279 280 281 281 282 284 286
102 101 99 99 99 97 93 93 93 89 89 91 91 90 88 86 86 88 91 94 97 101 104 99 90 84 86 91 98 174 247 258 263 268 274 277 278 279 281 282 284 285
95 97 95 95 98 97 91 86 84 81 81 84 86 86 82 78 78 77 78 81 82 86 89 86 80 75 72 72 73 68 268 259 264 273 280 283 283 281 278 278 278 279
84 88 90 91 95 97 93 86 79 74 73 76 80 81 76 69 65 65 65 67 67 69 72 71 66 57 46 39 28 14 6 352 339 329 316 307 303 299 295 293 290 285
80 80 81 81 82 87 90 89 84 76 72 71 72 74 72 64 56 51 49 47 46 49 51 51 47 36 23 14 4 356 355 355 352 347 337 326 318 313 311 310 306 302
85 81 77 75 75 78 79 79 81 83 80 66 59 67 73 65 48 35 30 27 25 26 27 31 29 18 6 358 352 345 344 344 344 340 333 326 318 312 308 305 303 303
85 85 84 79 77 79 78 75 74 74 72 59 42 39 38 32 16 359 359 5 9 10 11 15 17 10 1 353 345 340 337 336 335 331 325 320 315 310 306 303 301 300